Probability
0 0 0 0 0 0 0 0 0 0 0 0 0 0 6 0 3 0 6 3 0 0 0 0 0 0 0 0 0 0 0 0 0 0 0 0 0 0 0 0 0 0 0
0 0 0 0 0 0 0 0 0 0 0 0 0 0 0 0 0 3 0 0 0 0 0 0 0 0 0 0 0 0 0 0 0 0 0 0 0 0 0 0 0 0 0
0 0 0 0 0 0 0 0 0 0 0 0 0 0 0 0 0 0 3 0 0 0 0 0 0 0 0 0 0 0 0 0 0 0 0 0 0 0 0 0 0 0 0
0 0 0 0 0 0 0 0 0 0 0 0 0 0 0 0 0 0 3 0 0 0 0 0 0 0 0 0 0 0 0 0 0 0 0 0 0 0 0 0 0 0 0
0 0 0 0 0 0 0 0 0 0 0 0 0 0 0 3 0 0 0 0 0 0 0 0 0 0 0 0 0 0 0 0 0 0 0 0 0 0 0 0 0 0 0
0 0 0 0 0 0 0 0 0 0 0 0 0 0 3 3 0 0 3 6 0 0 0 0 0 0 0 0 0 0 0 0 0 0 0 0 0 0 0 0 0 0 0
0 0 0 0 0 0 0 0 0 0 0 0 0 0 0 0 0 0 3 6 0 0 0 0 0 0 0 0 0 0 0 0 0 0 0 0 0 0 0 0 0 0 0
0 0 0 0 0 0 0 0 0 0 0 0 0 0 0 3 3 3 6 6 0 0 0 0 0 0 0 0 0 0 0 0 0 0 0 0 0 0 0 0 0 0 0
0 0 0 0 0 0 0 0 0 0 0 0 0 0 3 3 3 3 3 3 0 0 0 0 0 0 0 0 0 0 0 0 0 0 0 0 0 0 0 0 0 0 0
0 0 0 0 0 0 0 0 0 0 0 0 0 0 0 0 0 0 0 0 0 0 0 0 0 0 0 0 0 0 0 0 0 0 0 0 0 0 0 0 0 0 0
0 0 0 0 0 0 0 0 0 0 0 0 0 0 0 0 0 0 0 0 0 0 0 0 0 0 0 0 0 0 0 0 0 0 0 0 0 0 0 0 0 0 0
0 0 0 0 0 0 0 0 0 0 0 0 0 0 0 0 0 0 0 0 0 0 0 0 0 0 0 0 0 0 0 0 0 0 0 0 0 0 0 0 0 0 0
0 0 0 0 0 0 0 0 0 0 0 0 0 0 0 0 0 0 0 0 0 0 0 0 0 0 0 0 0 0 0 0 0 0 0 0 0 0 0 0 0 0 0
0 0 0 0 0 0 0 0 0 0 0 0 0 0 0 0 0 0 0 0 0 0 0 0 0 0 0 0 0 0 0 0 0 0 0 0 0 0 0 0 0 0 0
0 0 0 0 0 0 0 0 0 0 0 0 0 0 0 0 0 0 0 0 0 0 0 0 0 0 0 0 0 0 0 0 0 0 0 0 0 0 0 0 0 0 0
0 0 0 0 0 0 0 0 0 0 0 0 0 0 0 0 0 0 0 0 0 0 0 0 0 0 0 0 0 0 0 0 0 0 0 0 0 0 0 0 0 0 0
0 0 0 0 0 0 0 0 0 0 0 0 0 0 0 0 0 0 0 0 0 0 0 0 0 0 0 0 0 0 0 0 0 0 0 0 0 0 0 0 0 0 0
0 0 0 0 0 0 0 0 0 0 0 0 0 0 0 0 0 0 0 0 0 0 0 0 0 0 0 0 0 0 0 0 0 0 0 0 0 0 0 0 0 0 0
0 0 0 0 0 0 0 0 0 0 0 0 0 0 0 0 0 0 0 0 0 0 0 0 0 0 0 0 0 0 0 0 0 0 0 0 0 0 0 0 0 0 0
0 0 0 0 0 0 0 0 0 0 0 0 0 0 0 0 0 0 0 0 0 0 0 0 0 0 0 0 0 0 0 0 0 0 0 0 0 0 0 0 0 0 0
0 0 0 0 0 0 0 0 0 0 0 0 0 0 0 0 0 0 0 0 0 0 0 0 0 0 0 0 0 0 0 0 0 0 0 0 0 0 0 0 0 0 0
0 0 0 0 0 0 0 0 0 0 0 0 0 0 0 0 0 0 0 0 0 0 0 0 0 0 0 0 0 0 0 0 0 0 0 0 0 0 0 0 0 0 0
0 0 0 0 0 0 0 0 0 0 0 0 0 0 0 0 0 0 0 0 0 0 0 0 0 0 0 0 0 0 0 0 0 0 0 0 0 0 0 0 0 0 0
0 0 0 0 0 0 0 0 0 0 0 0 0 0 0 0 0 0 0 0 0 0 0 0 0 0 0 0 0 0 0 0 0 0 0 0 0 0 0 0 0 0 0
0 0 0 0 0 0 0 0 0 0 0 0 0 0 0 0 0 0 0 0 0 0 0 0 0 0 0 0 0 0 0 0 0 0 0 0 0 0 0 0 0 0 0
0 0 0 0 0 0 0 0 0 0 0 0 0 0 0 0 0 0 0 0 0 0 0 0 0 0 0 0 0 0 0 0 0 0 0 0 0 0 0 0 0 0 0
Height
5857 5855 5853 5852 5851 5850 5850 5850 5850 5851 5852 5853 5853 5855 5856 5857 5858 5859 5859 5860 5861 5862 5863 5864 5865 5867 5868 5869 5870 5871 5872 5873 5874 5876 5877 5878 5878 5879 5880 5882 5882 5883 5884
5846 5844 5842 5840 5839 5838 5837 5837 5838 5839 5840 5842 5843 5845 5847 5849 5850 5851 5852 5853 5854 5855 5856 5858 5858 5860 5861 5862 5864 5865 5866 5867 5869 5870 5871 5873 5874 5874 5875 5876 5877 5878 5879
5836 5833 5830 5828 5827 5825 5825 5825 5825 5826 5828 5830 5832 5834 5837 5840 5842 5843 5845 5846 5847 5848 5850 5851 5852 5853 5855 5856 5857 5858 5860 5861 5862 5864 5865 5866 5867 5868 5870 5870 5871 5872 5873
5825 5822 5819 5817 5815 5813 5812 5812 5813 5814 5816 5818 5820 5823 5826 5830 5832 5835 5836 5838 5839 5841 5842 5844 5845 5847 5848 5849 5850 5851 5852 5854 5855 5857 5858 5860 5861 5862 5864 5864 5865 5866 5867
5815 5812 5808 5805 5803 5802 5801 5801 5801 5802 5803 5806 5809 5812 5816 5819 5823 5825 5827 5829 5831 5833 5834 5836 5838 5839 5841 5842 5843 5844 5845 5847 5848 5850 5851 5852 5853 5855 5856 5857 5858 5859 5860
5807 5803 5799 5796 5793 5791 5791 5790 5791 5791 5793 5795 5798 5801 5805 5809 5813 5816 5819 5821 5823 5825 5827 5828 5830 5832 5833 5834 5836 5836 5837 5839 5840 5842 5843 5845 5846 5847 5849 5850 5851 5852 5853
5800 5796 5792 5789 5786 5783 5782 5781 5782 5783 5784 5786 5789 5792 5796 5800 5804 5807 5810 5813 5815 5817 5819 5821 5823 5824 5825 5826 5827 5829 5829 5831 5832 5834 5835 5837 5838 5839 5841 5842 5843 5844 5846
5795 5790 5787 5784 5781 5778 5776 5775 5776 5776 5777 5779 5782 5785 5789 5792 5796 5799 5802 5805 5807 5809 5811 5813 5815 5817 5818 5819 5820 5820 5821 5823 5824 5825 5827 5828 5829 5831 5833 5834 5835 5836 5838
5792 5788 5784 5780 5777 5775 5773 5772 5772 5772 5773 5774 5777 5780 5783 5786 5789 5792 5795 5798 5800 5802 5803 5805 5806 5808 5809 5810 5812 5813 5813 5814 5816 5817 5818 5819 5821 5822 5823 5825 5826 5828 5829
5791 5787 5783 5779 5776 5774 5772 5771 5770 5770 5771 5772 5773 5776 5778 5781 5784 5787 5789 5792 5793 5795 5796 5797 5799 5800 5802 5803 5804 5804 5805 5806 5807 5809 5810 5811 5812 5813 5814 5816 5817 5819 5821
5792 5788 5784 5781 5777 5775 5773 5771 5771 5770 5770 5771 5772 5773 5775 5778 5780 5782 5784 5786 5787 5789 5790 5790 5792 5793 5794 5795 5795 5796 5797 5798 5799 5800 5801 5802 5803 5805 5806 5808 5809 5811 5812
5794 5790 5787 5783 5780 5777 5775 5773 5772 5772 5771 5771 5772 5773 5774 5776 5777 5778 5780 5781 5782 5783 5784 5785 5786 5787 5787 5788 5789 5789 5790 5791 5792 5793 5794 5794 5796 5797 5798 5800 5802 5803 5804
5797 5793 5790 5787 5784 5780 5778 5776 5775 5774 5773 5773 5772 5773 5774 5775 5775 5776 5777 5778 5779 5779 5780 5780 5781 5781 5781 5782 5782 5783 5783 5784 5785 5786 5787 5788 5789 5790 5791 5793 5794 5796 5797
5800 5797 5794 5791 5788 5785 5782 5780 5778 5777 5776 5775 5775 5774 5775 5775 5775 5775 5775 5775 5776 5776 5776 5776 5776 5776 5776 5776 5777 5777 5777 5778 5779 5780 5780 5782 5783 5784 5785 5786 5788 5790 5792
5805 5802 5799 5795 5792 5789 5787 5785 5783 5782 5780 5779 5778 5778 5777 5776 5776 5775 5775 5775 5774 5774 5773 5773 5772 5772 5772 5772 5772 5772 5772 5773 5774 5774 5775 5776 5777 5778 5780 5782 5783 5785 5787
5809 5806 5803 5800 5797 5795 5792 5790 5788 5786 5785 5783 5782 5781 5780 5778 5777 5776 5775 5774 5774 5773 5772 5771 5770 5769 5769 5768 5768 5768 5768 5768 5769 5770 5770 5771 5773 5774 5776 5778 5780 5782 5784
5814 5811 5808 5805 5803 5800 5798 5795 5793 5791 5789 5787 5786 5784 5782 5781 5779 5777 5776 5775 5773 5772 5771 5769 5768 5767 5766 5765 5764 5764 5764 5764 5765 5765 5766 5768 5769 5771 5772 5774 5776 5778 5780
5818 5816 5813 5811 5808 5806 5803 5801 5798 5796 5794 5792 5790 5787 5785 5783 5781 5779 5777 5775 5773 5771 5769 5767 5765 5763 5762 5761 5760 5760 5759 5760 5760 5761 5762 5764 5765 5767 5769 5771 5773 5774 5776
5823 5821 5818 5816 5813 5811 5808 5806 5803 5801 5798 5796 5793 5791 5788 5786 5783 5780 5777 5775 5772 5770 5767 5765 5763 5761 5759 5757 5756 5755 5755 5755 5756 5757 5758 5760 5761 5763 5765 5767 5769 5771 5772
5828 5825 5823 5821 5818 5816 5813 5811 5808 5805 5803 5800 5797 5794 5791 5788 5785 5782 5779 5776 5773 5770 5767 5764 5761 5759 5756 5754 5753 5752 5752 5751 5752 5753 5754 5756 5758 5760 5762 5764 5765 5767 5768
5832 5830 5828 5825 5823 5820 5818 5815 5812 5809 5806 5803 5800 5797 5794 5791 5787 5784 5780 5777 5774 5770 5767 5763 5760 5757 5755 5752 5751 5750 5749 5749 5749 5750 5751 5753 5755 5757 5759 5761 5762 5764 5765
5837 5834 5832 5829 5827 5824 5822 5819 5816 5813 5810 5807 5804 5800 5797 5793 5790 5786 5782 5778 5775 5771 5767 5764 5761 5757 5755 5752 5750 5749 5748 5747 5748 5748 5750 5751 5753 5755 5757 5758 5760 5761 5763
5840 5838 5835 5833 5830 5828 5825 5822 5820 5817 5814 5810 5807 5804 5800 5796 5793 5789 5785 5781 5777 5773 5769 5766 5762 5759 5756 5754 5752 5750 5749 5748 5748 5748 5749 5751 5752 5754 5755 5757 5759 5760 5761
5843 5841 5838 5836 5834 5831 5828 5826 5823 5820 5817 5814 5810 5807 5803 5800 5796 5792 5788 5784 5780 5776 5772 5769 5765 5762 5759 5756 5754 5753 5751 5750 5750 5750 5751 5752 5753 5754 5756 5757 5758 5759 5760
5845 5843 5841 5839 5836 5834 5831 5829 5826 5823 5820 5817 5813 5810 5806 5803 5799 5795 5791 5787 5783 5779 5776 5773 5769 5766 5763 5761 5759 5757 5755 5754 5754 5754 5754 5754 5755 5756 5757 5758 5759 5759 5760
5847 5845 5843 5841 5839 5836 5834 5831 5829 5826 5823 5820 5817 5813 5810 5806 5802 5799 5795 5791 5787 5784 5780 5777 5774 5771 5768 5765 5764 5762 5760 5759 5758 5758 5758 5758 5758 5759 5759 5760 5760 5760 5761
Wind_Speed
39 40 41 42 42 42 43 43 42 42 42 41 40 37 36 35 34 33 32 30 27 26 26 25 24 23 23 23 23 23 23 23 22 21 21 21 20 19 18 18 18 17 16
41 42 43 44 44 45 45 45 45 44 44 44 43 41 40 38 35 33 33 31 30 28 26 27 26 25 25 25 25 25 24 24 23 23 23 23 22 22 21 20 20 20 19
39 40 43 44 45 46 46 46 46 45 45 44 44 43 41 41 38 35 34 34 33 31 31 29 27 26 26 26 26 27 27 26 25 24 24 24 24 24 23 23 23 22 22
39 39 40 41 42 43 44 44 44 44 44 44 43 43 42 41 39 38 36 36 35 33 32 31 29 28 27 27 28 27 27 27 26 26 26 25 25 25 25 25 24 24 24
36 37 38 38 38 39 39 39 40 41 42 41 41 41 41 41 39 38 38 37 36 35 33 31 30 30 29 30 30 29 28 28 27 27 27 27 27 27 27 27 27 27 26
33 34 33 32 32 33 34 34 35 36 37 37 37 37 37 38 37 37 37 36 37 36 34 32 30 30 31 30 30 30 29 29 29 29 28 29 29 29 28 28 29 29 29
27 27 27 26 26 26 28 28 27 27 28 30 31 32 32 33 34 34 35 35 35 35 35 34 31 30 30 31 30 29 29 29 29 29 30 31 31 31 31 31 31 31 31
21 21 20 21 20 20 19 19 19 20 20 21 22 24 25 25 27 29 31 31 31 32 31 31 30 29 29 28 29 30 30 30 30 31 31 31 32 32 33 33 32 32 31
17 17 16 15 13 12 11 11 12 13 16 17 17 18 19 19 20 23 25 25 27 27 27 27 27 27 28 28 29 29 29 29 30 30 31 31 33 34 35 35 34 33 32
17 15 13 12 11 9 8 7 7 7 9 10 11 13 15 15 16 18 20 22 23 24 25 26 26 27 27 28 30 30 30 30 29 29 29 30 31 33 33 34 33 32 32
16 15 14 12 11 10 8 6 5 5 4 5 6 8 10 12 13 14 16 18 19 20 21 21 23 25 25 26 26 26 26 27 27 28 29 30 30 30 30 30 30 30 30
17 17 16 15 14 12 10 8 7 6 4 2 2 4 5 7 8 10 12 13 15 16 17 18 20 21 21 22 23 23 24 25 25 25 26 26 26 26 27 27 27 28 28
19 19 17 17 17 16 14 13 11 10 9 7 5 3 1 2 3 5 7 8 10 11 12 14 16 17 18 19 20 20 21 22 21 21 21 22 24 24 25 25 26 27 26
20 20 19 18 18 18 18 18 16 14 13 12 10 8 7 5 4 3 2 3 4 6 8 10 12 13 14 14 15 16 17 17 18 18 19 19 20 19 20 21 20 20 19
21 20 20 20 20 19 18 18 17 17 16 15 14 12 11 10 9 7 6 5 5 5 6 7 8 8 9 9 11 12 13 14 14 15 15 15 14 14 14 15 15 15 15
20 21 21 21 21 20 20 20 19 19 18 17 16 14 13 13 12 10 9 8 7 7 7 7 8 8 8 9 10 10 11 12 12 12 12 12 11 12 12 12 12 13 13
19 21 22 22 22 22 21 20 20 20 19 19 18 17 16 15 14 13 11 10 9 9 8 8 8 8 9 9 10 10 10 10 10 11 11 11 11 11 10 11 11 11 11
20 20 21 21 21 21 21 21 20 19 20 19 19 18 17 16 15 14 13 12 11 11 10 11 10 9 10 10 10 11 11 11 11 11 11 11 10 10 10 10 10 10 11
20 20 20 21 21 21 21 21 21 20 20 19 19 19 19 18 17 17 16 15 14 13 12 12 11 11 10 10 10 10 10 11 10 11 11 11 10 10 10 10 10 10 11
19 19 19 19 20 20 20 20 20 20 20 20 20 20 19 19 19 19 18 17 16 16 15 13 12 12 10 9 9 8 8 8 8 8 9 9 9 9 9 9 9 10 10
18 18 18 18 18 19 19 19 20 20 20 20 20 20 20 20 20 19 19 18 17 17 16 15 14 13 12 9 8 6 5 4 5 6 6 7 7 8 8 7 7 8 8
16 17 17 17 17 18 18 19 19 19 20 20 21 21 21 21 21 20 20 19 19 18 18 17 16 14 13 11 9 8 5 3 1 2 4 4 5 5 5 5 5 5 5
15 15 16 16 17 17 18 18 19 19 20 20 21 21 21 21 21 21 21 20 20 19 18 18 17 16 15 13 12 10 9 7 5 4 4 4 4 3 4 3 3 3 4
13 14 15 15 16 17 17 18 18 19 20 20 21 21 21 21 21 21 21 21 21 20 19 19 18 17 17 16 15 14 13 11 10 9 8 7 6 6 5 5 4 3 2
11 12 13 14 15 16 17 17 18 18 19 20 20 21 22 21 21 21 22 22 22 21 20 20 20 19 18 17 17 16 15 14 14 13 12 10 9 8 7 6 5 4 3
10 11 11 12 13 14 15 16 17 18 19 19 20 20 21 21 21 21 22 22 22 21 21 21 21 20 19 19 18 17 17 16 15 14 13 12 11 10 9 8 8 7 7
Wind_Direction
277 275 274 273 270 268 267 264 262 259 257 257 257 255 254 254 255 254 255 256 258 258 257 258 258 261 264 264 265 264 263 261 259 258 259 261 263 262 261 261 261 261 261
279 277 276 273 272 270 269 267 264 262 259 257 256 255 253 254 255 255 254 255 257 257 259 259 258 261 263 264 262 260 261 261 260 259 258 259 260 259 258 259 260 260 260
280 279 279 277 274 272 270 268 266 264 262 259 257 255 255 254 255 257 255 255 256 257 261 261 259 261 262 263 263 258 257 258 260 261 259 256 256 258 259 260 259 259 260
284 283 281 278 276 273 271 269 267 266 264 261 258 256 254 253 254 255 255 256 257 259 261 261 260 261 263 263 261 258 256 256 258 258 258 257 256 256 257 258 259 258 258
288 287 286 283 279 275 273 270 266 264 263 260 258 256 253 252 253 254 256 258 259 260 261 262 264 262 261 262 262 259 256 256 256 257 257 257 256 255 257 257 257 257 257
293 293 291 289 286 280 276 273 268 265 263 260 257 255 253 252 252 253 253 254 255 257 259 263 264 264 261 259 260 259 259 257 256 255 256 258 255 255 256 258 258 255 256
303 299 297 296 293 286 281 275 270 266 263 259 256 254 253 252 252 251 251 253 256 257 258 261 262 263 262 262 262 260 263 259 256 255 256 257 256 255 257 258 258 255 254
316 312 309 304 304 297 287 278 269 265 260 256 253 252 251 251 250 250 252 254 257 258 259 259 260 259 262 263 265 264 262 259 257 254 256 258 257 256 256 257 257 256 253
334 331 328 325 323 318 305 286 274 268 263 258 253 249 249 250 250 250 252 254 258 258 258 259 258 261 261 262 262 263 260 260 257 256 257 258 256 255 255 255 255 254 253
355 356 358 358 350 345 340 322 296 286 274 262 255 250 250 251 253 252 253 254 259 259 259 258 258 261 263 263 261 261 261 258 257 257 256 257 257 256 254 253 252 251 251
12 16 16 13 10 5 2 357 358 340 315 283 261 252 250 251 254 255 256 257 258 258 258 257 258 261 263 263 263 262 263 260 258 257 258 258 257 254 254 252 250 249 249
25 28 29 29 26 21 26 29 32 30 21 350 296 262 258 259 258 259 257 258 260 262 260 259 260 262 263 264 264 263 264 261 261 263 261 259 257 255 253 251 249 249 248
33 34 37 41 40 42 43 46 51 54 57 59 57 54 1 287 278 270 264 263 265 265 263 265 265 264 264 263 262 260 262 263 263 262 260 257 255 253 251 249 247 246 247
41 42 45 45 47 49 52 53 57 59 59 60 59 61 58 48 35 18 345 302 285 282 278 276 275 269 268 266 265 263 262 263 260 258 256 255 254 253 253 250 248 248 247
47 47 47 48 49 51 53 56 57 58 58 57 57 55 52 48 45 42 36 21 5 347 329 312 303 296 286 278 274 268 266 263 261 259 259 258 255 252 251 250 251 251 249
49 49 50 51 52 53 54 55 56 57 55 55 54 53 51 47 44 39 32 22 12 359 342 328 316 306 298 293 287 278 270 265 264 263 263 261 259 255 251 250 249 249 251
52 53 54 55 54 55 56 56 56 54 54 53 52 49 47 44 41 36 30 23 16 8 356 340 326 312 299 293 289 282 272 265 265 263 262 261 260 257 253 246 247 251 255
55 55 55 55 54 54 54 54 54 53 51 49 46 46 43 40 36 33 28 23 17 9 358 348 337 325 315 305 298 289 280 275 270 262 256 255 255 254 254 255 254 254 257
56 56 56 55 54 52 51 50 50 49 47 45 43 41 38 36 32 29 27 23 17 11 3 356 348 338 328 318 308 295 284 279 274 266 260 255 250 250 251 252 253 255 257
56 55 54 53 51 49 48 46 44 43 41 39 37 35 33 31 29 26 24 21 18 15 11 6 360 353 344 332 324 314 294 281 270 260 251 247 245 246 248 248 250 251 252
54 52 51 49 47 44 42 41 40 39 37 35 33 32 31 29 26 24 22 20 18 17 15 13 10 7 4 359 352 343 322 294 271 253 243 237 234 233 237 242 244 244 246
49 47 45 43 41 39 38 38 37 35 34 32 31 30 29 27 26 25 24 23 22 21 21 21 20 21 21 22 23 23 23 14 321 227 213 208 204 209 215 222 227 230 236
44 42 40 39 38 36 35 35 34 33 32 31 30 29 28 28 27 27 27 26 26 27 28 29 31 32 34 37 39 42 48 54 70 98 122 138 150 159 166 175 191 207 214
38 37 36 36 36 35 35 34 33 31 30 29 29 29 28 28 28 29 29 30 31 33 35 36 37 39 42 45 49 53 57 64 74 84 95 106 112 116 123 129 135 145 159
31 31 31 32 32 33 32 32 31 30 29 29 29 29 28 28 29 30 31 33 35 37 39 41 42 45 48 52 56 59 63 68 75 80 86 93 98 102 106 107 107 107 111
22 23 24 25 27 28 28 28 27 28 28 28 28 28 28 29 30 32 34 35 38 41 42 44 47 50 53 57 60 64 67 69 73 78 81 84 87 91 94 94 94 94 95